[[{"header":{"parameterUnit":"m.s-1","parameterCategory":1,"la1":30.2991,"la2":30.254,"lo1":-89.0895,"lo2":-89.0444,"dy":0.0017,"dx":0.0017,"nx":28,"ny":28,"refTime":"2024-05-12T09:00:00:Z","depth":0,"parameterNumber":2,"parameterNumberName":"U-component_of_WINDS"},"data":[0,0,0,0,0,0,0,0,0,0,0,0,0,0,0,0,0,0,0,0,0,0,0,0,0,0,0,0,0,0,0,0,0,0,0,0,0,0,0,0,0,0,0,0,0,0,0,0,0,0,0,0,0,0,0,0,0,0,0.6927,0.6926,0,0.69,0.69,0.69,0.6863,0.6863,0.6862,0.6862,0.6835,0.6835,0.6835,0,0,0,0,0,0,0,0,0,0,0,0,0,0.6946,0.6946,0.6927,0.6926,0.6926,0.69,0.69,0.69,0.6863,0.6863,0.6862,0.6861,0.6836,0.6835,0.6835,0,0,0,0,0,0,0,0,0,0,0,0,0,0.6931,0.6946,0.6927,0.6905,0.6903,0.69,0.69,0.69,0.6864,0.6863,0.6862,0.6861,0.6836,0.6835,0.6835,0.6853,0,0,0.6835,0.6835,0,0,0,0,0,0,0,0,0.6932,0.693,0.6908,0.6906,0.6904,0.6884,0.6897,0.6884,0.6864,0.6878,0.6861,0.686,0.6852,0.6851,0.6848,0.6851,0.685,0.6835,0.6835,0.6834,0.6834,0,0,0,0,0,0,0,0.6933,0.6931,0.6916,0.6908,0.6905,0.6897,0.6893,0.6895,0.6871,0.6877,0.6874,0.6872,0.6851,0.6848,0.6847,0.685,0.6835,0.6835,0.6834,0.6834,0.6866,0.6867,0,0,0,0,0,0,0.6937,0.6932,0.6917,0.6915,0.6916,0.6897,0.6893,0.6891,0.6871,0.6867,0.6873,0.687,0.6849,0.6847,0.6846,0.6865,0.6834,0.6834,0.6834,0.6865,0.6866,0.6867,0,0,0,0,0,0,0.6938,0.6936,0.6918,0.6923,0.692,0.6898,0.6896,0.6891,0.6888,0.6867,0.6863,0.6874,0.6848,0.6846,0.6851,0.6863,0.6834,0.6834,0.6864,0.6866,0.6867,0.6903,0,0,0,0,0,0,0.6938,0.6936,0.6943,0.6923,0.692,0.6923,0.6896,0.6892,0.6888,0.6885,0.6868,0.6864,0.6847,0.6852,0.6851,0.6863,0.6834,0.6863,0.6865,0.6867,0.69,0.6905,0.6909,0,0,0,0,0,0.6939,0.6954,0.6943,0.6942,0.6927,0.6924,0.6922,0.6903,0.6889,0.6895,0.6882,0.6864,0.6862,0.6852,0.6851,0.6863,0.6862,0.6864,0.6866,0.6898,0.6904,0.6909,0,0,0,0,0,0,0.6975,0.6951,0.6939,0.6948,0.6938,0.6918,0.6925,0.691,0.6904,0.6901,0.6877,0.6874,0.6882,0.6873,0.6862,0.6879,0.686,0.6862,0.6884,0.689,0.6894,0.6896,0.6834,0,0,0,0,0,0.6984,0.6984,0.6963,0.6973,0.6969,0.6948,0.6946,0.6932,0.6921,0.6917,0.6904,0.6894,0.6892,0.689,0.6886,0.6899,0.6895,0.6907,0.6911,0.6915,0.6917,0.6923,0.6928,0.6875,0.6875,0.6874,0,0,0.7003,0.699,0.6991,0.698,0.6971,0.6971,0.6945,0.6946,0.6946,0.6917,0.6921,0.6911,0.6899,0.6908,0.6911,0.6901,0.6931,0.6918,0.6921,0.6921,0.6925,0.693,0.6935,0.6876,0.6876,0.6875,0,0,0.7037,0.7027,0.7034,0.7025,0.7012,0.6998,0.7,0.6982,0.6974,0.6977,0.6956,0.6956,0.6951,0.6944,0.6939,0.6971,0.6954,0.697,0.6993,0.6999,0.7003,0.7007,0.7018,0.7022,0.6972,0.6972,0.6972,0,0.7062,0.706,0.7039,0.7042,0.7037,0.7012,0.7018,0.7011,0.6998,0.6996,0.6984,0.6978,0.6969,0.6975,0.6983,0.698,0.6981,0.6972,0.7005,0.7008,0.7011,0.7021,0.7025,0.6974,0.6974,0.6974,0.6974,0,0.7091,0.7091,0.7098,0.7085,0.7082,0.7087,0.7067,0.7066,0.7052,0.704,0.7044,0.7031,0.7024,0.7025,0.7011,0.7029,0.7023,0.7009,0.6989,0.7018,0.7027,0.7031,0.6977,0.6976,0.6976,0.6975,0,0,0.7147,0.7122,0.7125,0.7119,0.7102,0.7102,0.7106,0.7099,0.7098,0.709,0.7093,0.709,0.7076,0.7071,0.7057,0.7062,0.7087,0.7047,0.7046,0.7054,0.7106,0.7116,0.7121,0.7077,0.7077,0.7078,0.7107,0,0.7177,0.7181,0.7162,0.7172,0.7171,0.7147,0.715,0.7141,0.7129,0.7127,0.7115,0.7113,0.7095,0.7092,0.7096,0.7083,0.7097,0.7081,0.7079,0.7079,0.7082,0.7126,0.7137,0.7165,0.711,0.7111,0.7111,0,0.7212,0.7205,0.7215,0.7198,0.7197,0.72,0.7192,0.719,0.7179,0.7171,0.7165,0.7149,0.7152,0.7133,0.7137,0.7126,0.7124,0.7118,0.7118,0.7117,0.7096,0.7125,0.7173,0.7177,0.7117,0.7116,0.7116,0,0.725,0.7244,0.7248,0.7244,0.7224,0.7227,0.7219,0.7207,0.7204,0.7198,0.7196,0.719,0.7186,0.7182,0.7165,0.7153,0.717,0.715,0.7163,0.7163,0.7167,0.7167,0.7215,0.7167,0.7167,0.7167,0.7167,0,0.7285,0.7292,0.7265,0.7268,0.7275,0.7254,0.7261,0.7251,0.724,0.7241,0.722,0.7221,0.7198,0.7197,0.7183,0.7188,0.7187,0.718,0.7176,0.7181,0.7182,0.7179,0.7176,0.7168,0.7168,0.7168,0.7167,0,0.7329,0.7312,0.7315,0.7296,0.7292,0.7298,0.7282,0.7284,0.7271,0.7272,0.7271,0.7252,0.7249,0.7231,0.7225,0.7216,0.7225,0.7218,0.7229,0.7226,0.724,0.7238,0.7287,0.7292,0.7242,0.7242,0.7243,0,0.7352,0.7356,0.7338,0.7337,0.733,0.7328,0.7325,0.7305,0.7302,0.729,0.7294,0.7289,0.7285,0.7282,0.7267,0.7262,0.7254,0.7271,0.7253,0.7258,0.7253,0.7253,0.7253,0.7275,0.7276,0.7276,0.7277,0,0.7395,0.7386,0.7382,0.7375,0.7372,0.7365,0.7358,0.7358,0.7336,0.7334,0.7331,0.7327,0.7321,0.7316,0.7309,0.7301,0.7285,0.7283,0.7285,0.729,0.7296,0.7292,0.7239,0.7281,0.7281,0.7281,0.728,0.728,0.7428,0.7431,0.7418,0.7414,0.7407,0.74,0.7401,0.7389,0.7386,0.7378,0.7367,0.7365,0.7354,0.7342,0.7336,0.7335,0.7325,0.7329,0.733,0.7331,0.7334,0.7297,0.7333,0.7333,0.7333,0.7333,0.7333,0,0.7469,0.746,0.7456,0.7446,0.7444,0.7429,0.742,0.7419,0.7417,0.7409,0.7404,0.7401,0.7397,0.7382,0.7377,0.7379,0.7371,0.7378,0.7377,0.7375,0.7343,0.7341,0.7384,0.7384,0.7384,0.7384,0.7384,0.7384,0.7489,0.7493,0.7483,0.7483,0.7474,0.7471,0.7468,0.7462,0.7454,0.7451,0.7448,0.7438,0.7427,0.7421,0.7416,0.7412,0.7411,0.742,0.7413,0.7383,0.7378,0.7373,0.7371,0.742,0.742,0.7446,0.7446,0.7446]},{"header":{"parameterUnit":"m.s-1","parameterCategory":1,"la1":30.2991,"la2":30.254,"lo1":-89.0895,"lo2":-89.0444,"dy":0.0017,"dx":0.0017,"nx":28,"ny":28,"refTime":"2024-05-12T09:00:00:Z","depth":0,"parameterNumber":3,"parameterNumberName":"V-component_of_WINDS"},"data":[0,0,0,0,0,0,0,0,0,0,0,0,0,0,0,0,0,0,0,0,0,0,0,0,0,0,0,0,0,0,0,0,0,0,0,0,0,0,0,0,0,0,0,0,0,0,0,0,0,0,0,0,0,0,0,0,0,0,6.9346,6.9347,0,6.9461,6.9462,6.9463,6.9449,6.9448,6.9446,6.9444,6.9558,6.9563,6.9568,0,0,0,0,0,0,0,0,0,0,0,0,0,6.9112,6.9116,6.9346,6.9347,6.9349,6.946,6.9462,6.9463,6.945,6.9448,6.9445,6.9443,6.9557,6.9562,6.9568,0,0,0,0,0,0,0,0,0,0,0,0,0,6.9219,6.9118,6.9345,6.9355,6.9357,6.946,6.9462,6.9464,6.945,6.9448,6.9445,6.9442,6.9555,6.9562,6.9569,6.9668,0,0,6.9591,6.9594,0,0,0,0,0,0,0,0,6.9212,6.9227,6.9352,6.9355,6.9357,6.9438,6.9421,6.9532,6.9451,6.9415,6.9444,6.9441,6.952,6.953,6.9558,6.9673,6.9678,6.9591,6.9596,6.9599,6.9601,0,0,0,0,0,0,0,6.9205,6.9222,6.9391,6.9354,6.9357,6.9353,6.9365,6.9442,6.9481,6.9418,6.9417,6.9431,6.9521,6.9551,6.956,6.968,6.9591,6.9597,6.9602,6.9605,6.9883,6.9886,0,0,0,0,0,0,6.9196,6.9216,6.9387,6.9394,6.9277,6.936,6.9373,6.9415,6.9481,6.9488,6.9433,6.943,6.954,6.9552,6.9564,6.9685,6.9599,6.9605,6.9609,6.988,6.9884,6.9887,0,0,0,0,0,0,6.9191,6.9211,6.9383,6.9305,6.9327,6.9367,6.9413,6.9418,6.9448,6.9492,6.9499,6.9457,6.9538,6.9554,6.9643,6.9688,6.9608,6.9615,6.9876,6.9881,6.9885,6.9926,0,0,0,0,0,0,6.9184,6.9209,6.9248,6.9306,6.9331,6.946,6.9416,6.9423,6.9461,6.9458,6.9516,6.9523,6.9537,6.9632,6.965,6.9697,6.962,6.9872,6.9878,6.9884,6.9921,6.9932,6.9941,0,0,0,0,0,6.9176,6.9254,6.925,6.9271,6.938,6.9463,6.9477,6.9493,6.9465,6.9503,6.9532,6.9521,6.9681,6.9641,6.9661,6.9711,6.9869,6.9877,6.9883,6.9916,6.993,6.9941,0,0,0,0,0,0,6.9199,6.9262,6.9258,6.9358,6.9405,6.946,6.951,6.9506,6.9561,6.9556,6.9572,6.9585,6.9675,6.9702,6.9657,6.981,6.9771,6.9782,6.9789,6.9802,6.9812,6.9803,6.9626,0,0,0,0,0,6.9216,6.9279,6.933,6.9413,6.9437,6.947,6.9506,6.9514,6.9564,6.9583,6.9618,6.9665,6.9726,6.9766,6.9824,6.9925,6.9937,6.9969,6.9979,6.9987,6.9996,7.0052,7.0066,6.991,6.991,6.991,0,0,6.9251,6.9293,6.9332,6.9419,6.9457,6.952,6.9486,6.9555,6.9602,6.9593,6.9679,6.9707,6.976,6.9856,6.9899,6.9881,7.0042,6.9996,7.0002,7.0007,7.006,7.0075,7.0088,6.9915,6.9914,6.9913,0,0,6.9348,6.9386,6.946,6.9499,6.9557,6.9578,6.9596,6.9652,6.967,6.9757,6.9752,6.9808,6.9912,6.9951,6.9984,7.0097,7.0089,7.0115,7.0167,7.0221,7.0233,7.0244,7.0284,7.0298,7.0125,7.0125,7.0125,0,6.9384,6.9481,6.9498,6.9568,6.9606,6.9602,6.9677,6.9713,6.9787,6.9813,6.9791,6.9923,6.9959,7.0063,7.0091,7.0118,7.0138,7.0108,7.023,7.0242,7.0252,7.029,7.0305,7.0128,7.0127,7.0127,7.0127,0,6.9522,6.959,6.9642,6.9715,6.9759,6.9831,6.9858,6.99,6.9905,6.9928,7.0017,7.006,7.0127,7.0153,7.0157,7.0258,7.0245,7.0227,7.0188,7.027,7.0306,7.032,7.0132,7.0131,7.013,7.0129,0,0,6.9635,6.9718,6.9737,6.977,6.9834,6.9886,6.9958,7.0025,7.0061,7.0112,7.0172,7.0261,7.0245,7.0283,7.0292,7.0339,7.0426,7.0316,7.0317,7.0334,7.0539,7.0551,7.0568,7.0421,7.0424,7.0426,7.0534,0,6.9738,6.9866,6.9884,6.9996,7.0058,7.0056,7.0118,7.0164,7.0188,7.0244,7.0269,7.0332,7.0307,7.033,7.0377,7.0405,7.0467,7.0398,7.0476,7.0479,7.0462,7.0587,7.06,7.07,7.0548,7.0551,7.0553,0,6.9875,6.9931,7.005,7.0107,7.0134,7.0189,7.0252,7.0306,7.0358,7.0372,7.0415,7.0418,7.0491,7.045,7.0551,7.0504,7.0537,7.0556,7.056,7.0567,7.052,7.0597,7.0732,7.0747,7.0575,7.0573,7.0572,0,6.9945,7.0051,7.0136,7.0164,7.0232,7.0272,7.0302,7.0351,7.039,7.0445,7.0471,7.0533,7.0567,7.0615,7.0635,7.0603,7.0734,7.0695,7.0747,7.0747,7.0774,7.0772,7.0916,7.0797,7.0797,7.0796,7.0796,0,7.0058,7.013,7.0169,7.0221,7.0302,7.0322,7.0402,7.043,7.0474,7.0531,7.0533,7.0586,7.0609,7.0666,7.0682,7.0763,7.0779,7.0791,7.0795,7.0791,7.0789,7.0812,7.0806,7.08,7.08,7.0799,7.0798,0,7.015,7.0178,7.0271,7.0328,7.0344,7.0402,7.045,7.05,7.0524,7.0596,7.0614,7.0651,7.0719,7.0744,7.0825,7.0836,7.0929,7.0927,7.0912,7.0913,7.0964,7.0959,7.1127,7.115,7.1016,7.1018,7.1019,0,7.0219,7.0275,7.0339,7.0378,7.041,7.0472,7.0513,7.0535,7.0577,7.064,7.0683,7.075,7.0805,7.0912,7.0945,7.1008,7.1007,7.1062,7.1016,7.1011,7.1007,7.1003,7.1009,7.107,7.1071,7.1072,7.1073,0,7.0339,7.0351,7.041,7.0475,7.0523,7.0575,7.0625,7.0656,7.0685,7.0732,7.0801,7.0844,7.0928,7.0994,7.1059,7.1088,7.1086,7.1087,7.1103,7.1099,7.1088,7.1094,7.0935,7.1083,7.1082,7.1081,7.1081,7.108,7.0422,7.0472,7.0525,7.0591,7.0631,7.0678,7.0728,7.0759,7.0817,7.0888,7.0897,7.0971,7.1022,7.1108,7.1141,7.1199,7.1184,7.1206,7.1212,7.1217,7.122,7.108,7.121,7.121,7.121,7.121,7.1209,0,7.0542,7.0576,7.0637,7.0707,7.0759,7.0753,7.0808,7.0852,7.0917,7.0965,7.102,7.1099,7.1164,7.1203,7.1268,7.1307,7.1307,7.1323,7.132,7.1327,7.123,7.121,7.1322,7.1322,7.1322,7.1322,7.1322,7.1322,7.061,7.0695,7.0713,7.0817,7.085,7.0924,7.0956,7.0999,7.1037,7.1127,7.1181,7.1207,7.1251,7.1319,7.1378,7.1388,7.1411,7.1429,7.1437,7.1345,7.1334,7.1323,7.1304,7.1434,7.1434,7.1529,7.153,7.1531]}]]